Time,TemperatureF,DewpointF,PressureIn,WindDirection,WindDirectionDegrees,WindSpeedMPH,WindSpeedGustMPH,Humidity,HourlyPrecipIn,Conditions,Clouds,dailyrainin,SoftwareType,DateUTC
2013-02-02 07:22:00,17.4,12.6,30.36,NNW,344,0.0,0.0,81,0.00,CLR,,0.00,WeatherDisplay:10.37,2013-02-02 12:22:00,
2013-02-02 07:27:00,17.4,12.8,30.36,NNW,345,0.0,0.0,82,0.00,CLR,,0.00,WeatherDisplay:10.37,2013-02-02 12:27:00,
2013-02-02 07:32:00,17.4,12.8,30.36,NNW,345,0.0,0.0,82,0.00,CLR,,0.00,WeatherDisplay:10.37,2013-02-02 12:32:00,
2013-02-02 07:37:00,17.4,12.8,30.36,NNW,345,0.0,0.0,82,0.00,CLR,,0.00,WeatherDisplay:10.37,2013-02-02 12:37:00,
2013-02-02 07:42:00,17.4,12.8,30.35,NNW,345,0.0,0.0,82,0.00,CLR,,0.00,WeatherDisplay:10.37,2013-02-02 12:42:00,
2013-02-02 07:47:00,17.4,12.8,30.36,NNW,345,0.0,0.0,82,0.00,CLR,,0.00,WeatherDisplay:10.37,2013-02-02 12:47:00,
2013-02-02 07:52:00,17.4,12.8,30.36,NNW,344,0.0,0.0,82,0.00,CLR,,0.00,WeatherDisplay:10.37,2013-02-02 12:52:00,
2013-02-02 07:57:00,17.4,12.8,30.36,NNW,345,0.0,0.0,82,0.00,CLR,,0.00,WeatherDisplay:10.37,2013-02-02 12:57:00,
2013-02-02 08:02:00,17.5,12.9,30.36,NNW,344,0.0,0.0,82,0.00,CLR,,0.00,WeatherDisplay:10.37,2013-02-02 13:02:00,
2013-02-02 08:07:00,17.5,12.7,30.37,NNW,345,0.0,0.0,81,0.00,CLR,,0.00,WeatherDisplay:10.37,2013-02-02 13:07:00,
2013-02-02 08:12:00,17.6,12.5,30.37,NNW,345,0.0,0.0,80,0.00,CLR,,0.00,WeatherDisplay:10.37,2013-02-02 13:12:00,
2013-02-02 08:17:00,17.7,12.9,30.37,NNW,345,0.0,0.0,81,0.00,CLR,,0.00,WeatherDisplay:10.37,2013-02-02 13:17:00,
2013-02-02 08:22:00,17.8,12.7,30.37,NNW,345,0.0,0.0,80,0.00,CLR,,0.00,WeatherDisplay:10.37,2013-02-02 13:22:00,
2013-02-02 08:27:00,18.1,13.0,30.36,NNW,344,0.0,0.0,80,0.00,CLR,,0.00,WeatherDisplay:10.37,2013-02-02 13:27:00,
2013-02-02 08:32:00,18.3,12.9,30.36,NNW,344,0.0,0.0,79,0.00,CLR,,0.00,WeatherDisplay:10.37,2013-02-02 13:32:00,
2013-02-02 08:37:00,18.7,13.0,30.36,NNW,345,0.0,0.0,78,0.00,CLR,,0.00,WeatherDisplay:10.37,2013-02-02 13:37:00,
2013-02-02 08:42:00,19.0,13.8,30.35,NNW,344,0.0,0.0,80,0.00,CLR,,0.00,WeatherDisplay:10.37,2013-02-02 13:42:00,
2013-02-02 08:47:00,19.3,13.9,30.35,NNW,344,0.0,0.0,79,0.00,CLR,,0.00,WeatherDisplay:10.37,2013-02-02 13:47:00,
2013-02-02 08:52:00,19.5,14.3,30.35,NNW,345,0.0,0.0,80,0.00,CLR,,0.00,WeatherDisplay:10.37,2013-02-02 13:52:00,
2013-02-02 08:58:00,19.7,14.5,30.36,NNW,344,0.0,0.0,80,0.00,CLR,,0.00,WeatherDisplay:10.37,2013-02-02 13:58:00,
2013-02-02 09:03:00,19.9,14.4,30.35,NNW,345,0.0,0.0,79,0.00,FEW,,0.00,WeatherDisplay:10.37,2013-02-02 14:03:00,
2013-02-02 09:08:00,20.0,14.2,30.35,NNW,345,0.0,0.0,78,0.00,FEW,,0.00,WeatherDisplay:10.37,2013-02-02 14:08:00,
2013-02-02 09:13:00,20.1,14.3,30.35,NNW,344,0.0,0.0,78,0.00,FEW,,0.00,WeatherDisplay:10.37,2013-02-02 14:13:00,
2013-02-02 09:18:00,20.2,13.8,30.35,NNW,345,0.0,0.0,76,0.00,FEW,,0.00,WeatherDisplay:10.37,2013-02-02 14:18:00,
2013-02-02 09:23:00,20.6,14.8,30.35,North,8,0.0,0.0,78,0.00,FEW,,0.00,WeatherDisplay:10.37,2013-02-02 14:23:00,
2013-02-02 09:28:00,20.9,14.8,30.34,North,8,0.0,0.0,77,0.00,FEW,,0.00,WeatherDisplay:10.37,2013-02-02 14:28:00,
2013-02-02 09:33:00,21.2,15.1,30.34,North,8,0.0,0.0,77,0.00,FEW,,0.00,WeatherDisplay:10.37,2013-02-02 14:33:00,
2013-02-02 09:38:00,21.6,15.2,30.34,North,8,0.0,0.0,76,0.00,FEW,,0.00,WeatherDisplay:10.37,2013-02-02 14:38:00,
2013-02-02 09:43:00,22.0,15.6,30.34,North,8,0.0,0.0,76,0.00,FEW,,0.00,WeatherDisplay:10.37,2013-02-02 14:43:00,
2013-02-02 09:48:00,22.4,15.1,30.34,North,8,0.0,0.0,73,0.00,FEW,,0.00,WeatherDisplay:10.37,2013-02-02 14:48:00,
2013-02-02 09:53:00,22.9,15.5,30.33,NNE,12,0.1,1.2,73,0.00,FEW,,0.00,WeatherDisplay:10.37,2013-02-02 14:53:00,
2013-02-02 09:58:00,23.3,15.6,30.33,NNE,12,0.0,0.0,72,0.00,FEW,,0.00,WeatherDisplay:10.37,2013-02-02 14:58:00,
2013-02-02 10:03:00,23.4,16.0,30.32,NNE,12,0.1,1.1,73,0.00,OVC,,0.00,WeatherDisplay:10.37,2013-02-02 15:03:00,
2013-02-02 10:08:00,23.4,15.4,30.32,ESE,118,0.0,1.1,71,0.00,OVC,,0.00,WeatherDisplay:10.37,2013-02-02 15:08:00,
2013-02-02 10:13:00,23.5,15.1,30.32,ESE,118,0.0,0.0,70,0.00,OVC,,0.00,WeatherDisplay:10.37,2013-02-02 15:13:00,
2013-02-02 10:18:00,23.8,15.4,30.32,ESE,118,0.0,1.2,70,0.00,OVC,,0.00,WeatherDisplay:10.37,2013-02-02 15:18:00,
2013-02-02 10:23:00,24.3,15.3,30.32,ESE,118,0.0,0.0,68,0.00,OVC,,0.00,WeatherDisplay:10.37,2013-02-02 15:23:00,
2013-02-02 10:28:00,24.7,15.6,30.32,ESE,118,0.0,1.2,68,0.00,OVC,,0.00,WeatherDisplay:10.37,2013-02-02 15:28:00,
2013-02-02 10:33:00,25.2,16.5,30.32,ENE,64,0.0,0.0,69,0.00,OVC,,0.00,WeatherDisplay:10.37,2013-02-02 15:33:00,
2013-02-02 10:38:00,25.8,17.0,30.32,ENE,71,0.0,0.0,69,0.00,OVC,,0.00,WeatherDisplay:10.37,2013-02-02 15:38:00,
2013-02-02 10:43:00,26.2,15.7,30.32,ENE,71,0.0,0.0,64,0.00,OVC,,0.00,WeatherDisplay:10.37,2013-02-02 15:43:00,
2013-02-02 10:48:00,26.5,17.0,30.31,NE,46,0.9,2.3,67,0.00,OVC,,0.00,WeatherDisplay:10.37,2013-02-02 15:48:00,
2013-02-02 10:53:00,27.1,16.2,30.31,NE,52,0.0,1.2,63,0.00,OVC,,0.00,WeatherDisplay:10.37,2013-02-02 15:53:00,
2013-02-02 10:58:00,27.4,15.7,30.31,ENE,69,0.0,0.0,61,0.00,OVC,,0.00,WeatherDisplay:10.37,2013-02-02 15:58:00,
2013-02-02 11:03:00,27.6,15.9,30.31,ENE,60,3.5,5.8,61,0.00,OVC,,0.00,WeatherDisplay:10.37,2013-02-02 16:03:00,
2013-02-02 11:08:00,27.9,16.6,30.31,NE,56,1.4,3.5,62,0.00,OVC,,0.00,WeatherDisplay:10.37,2013-02-02 16:08:00,
2013-02-02 11:13:00,28.2,16.8,30.32,ENE,58,0.0,0.0,62,0.00,OVC,,0.00,WeatherDisplay:10.37,2013-02-02 16:13:00,
2013-02-02 11:18:00,28.5,16.4,30.31,ENE,58,0.0,0.0,60,0.00,OVC,,0.00,WeatherDisplay:10.37,2013-02-02 16:18:00,
2013-02-02 11:23:00,28.6,15.7,30.31,ENE,58,0.0,0.0,58,0.00,OVC,,0.00,WeatherDisplay:10.37,2013-02-02 16:23:00,
2013-02-02 11:28:00,29.0,17.2,30.31,ENE,58,0.0,0.0,61,0.00,OVC,,0.00,WeatherDisplay:10.37,2013-02-02 16:28:00,
2013-02-02 11:33:00,29.7,15.9,30.31,ENE,58,0.0,0.0,56,0.00,OVC,,0.00,WeatherDisplay:10.37,2013-02-02 16:33:00,
2013-02-02 11:38:00,30.4,16.6,30.30,ENE,58,0.0,0.0,56,0.00,OVC,,0.00,WeatherDisplay:10.37,2013-02-02 16:38:00,
2013-02-02 11:43:00,31.1,17.6,30.30,ENE,58,0.0,1.1,57,0.00,OVC,,0.00,WeatherDisplay:10.37,2013-02-02 16:43:00,
2013-02-02 11:48:00,31.5,16.3,30.30,East,79,2.2,3.5,53,0.00,OVC,,0.00,WeatherDisplay:10.37,2013-02-02 16:48:00,
2013-02-02 11:53:00,32.1,18.6,30.30,ENE,59,0.4,2.3,57,0.00,OVC,,0.00,WeatherDisplay:10.37,2013-02-02 16:53:00,
2013-02-02 11:58:00,32.6,17.3,30.30,ENE,70,2.0,3.5,53,0.00,OVC,,0.00,WeatherDisplay:10.37,2013-02-02 16:58:00,
2013-02-02 12:03:00,32.9,17.2,30.30,NE,54,0.0,0.0,52,0.00,FEW,,0.00,WeatherDisplay:10.37,2013-02-02 17:03:00,
2013-02-02 12:08:00,33.0,17.7,30.30,NNE,23,0.1,1.1,53,0.00,FEW,,0.00,WeatherDisplay:10.37,2013-02-02 17:08:00,
2013-02-02 12:13:00,33.7,17.5,30.29,ENE,73,3.0,4.6,51,0.00,FEW,,0.00,WeatherDisplay:10.37,2013-02-02 17:13:00,
2013-02-02 12:18:00,33.7,17.9,30.28,NE,52,1.9,2.4,52,0.00,FEW,,0.00,WeatherDisplay:10.37,2013-02-02 17:18:00,
2013-02-02 12:23:00,33.9,17.2,30.28,ESE,109,0.0,0.0,50,0.00,FEW,,0.00,WeatherDisplay:10.37,2013-02-02 17:23:00,
2013-02-02 12:28:00,34.0,18.2,30.27,East,82,0.0,1.1,52,0.00,FEW,,0.00,WeatherDisplay:10.37,2013-02-02 17:28:00,
2013-02-02 12:33:00,33.9,17.2,30.26,ENE,73,0.1,1.1,50,0.00,FEW,,0.00,WeatherDisplay:10.37,2013-02-02 17:33:00,
2013-02-02 12:38:00,33.9,18.1,30.26,ENE,76,0.4,1.2,52,0.00,FEW,,0.00,WeatherDisplay:10.37,2013-02-02 17:38:00,
2013-02-02 12:43:00,34.4,18.6,30.25,NE,41,1.0,3.5,52,0.00,FEW,,0.00,WeatherDisplay:10.37,2013-02-02 17:43:00,
2013-02-02 12:48:00,34.7,18.4,30.24,NE,55,0.2,1.2,51,0.00,FEW,,0.00,WeatherDisplay:10.37,2013-02-02 17:48:00,
2013-02-02 12:53:00,35.3,19.9,30.24,NE,47,0.7,1.2,53,0.00,FEW,,0.00,WeatherDisplay:10.37,2013-02-02 17:53:00,
2013-02-02 12:58:00,36.4,20.4,30.23,NE,56,0.7,4.6,52,0.00,FEW,,0.00,WeatherDisplay:10.37,2013-02-02 17:58:00,
2013-02-02 13:03:00,36.3,18.5,30.22,ENE,59,0.5,1.2,48,0.00,BKN,,0.00,WeatherDisplay:10.37,2013-02-02 18:03:00,
2013-02-02 13:08:00,36.1,18.3,30.22,ENE,59,1.4,1.4,48,0.00,BKN,,0.00,WeatherDisplay:10.37,2013-02-02 18:08:00,
2013-02-02 13:13:00,36.5,19.1,30.22,ENE,60,0.0,0.0,49,0.00,BKN,,0.00,WeatherDisplay:10.37,2013-02-02 18:13:00,
2013-02-02 13:18:00,36.7,19.3,30.22,SW,224,0.0,1.1,49,0.00,BKN,,0.00,WeatherDisplay:10.37,2013-02-02 18:18:00,
2013-02-02 13:23:00,37.1,22.0,30.21,NE,48,4.2,4.2,54,0.00,BKN,,0.00,WeatherDisplay:10.37,2013-02-02 18:23:00,
2013-02-02 13:28:00,37.8,21.7,30.21,NE,48,0.0,1.1,52,0.00,BKN,,0.00,WeatherDisplay:10.37,2013-02-02 18:28:00,
2013-02-02 13:33:00,38.2,22.1,30.20,ENE,76,0.4,2.3,52,0.00,BKN,,0.00,WeatherDisplay:10.37,2013-02-02 18:33:00,
2013-02-02 13:38:00,38.7,25.6,30.20,NE,51,0.1,0.0,59,0.00,BKN,,0.00,WeatherDisplay:10.37,2013-02-02 18:38:00,
2013-02-02 13:43:00,39.2,25.6,30.19,ENE,61,1.1,0.0,58,0.00,BKN,,0.00,WeatherDisplay:10.37,2013-02-02 18:43:00,
2013-02-02 13:48:00,39.5,28.3,30.19,NNW,343,1.1,4.6,64,0.00,BKN,,0.00,WeatherDisplay:10.37,2013-02-02 18:48:00,
2013-02-02 13:53:00,39.7,28.9,30.18,North,350,0.0,0.0,65,0.00,BKN,,0.00,WeatherDisplay:10.37,2013-02-02 18:53:00,
2013-02-02 13:58:00,39.7,29.6,30.18,East,97,0.0,0.0,67,0.00,BKN,,0.00,WeatherDisplay:10.37,2013-02-02 18:58:00,
2013-02-02 14:03:00,39.7,29.6,30.17,WSW,237,1.6,3.7,67,0.00,BKN,,0.00,WeatherDisplay:10.37,2013-02-02 19:03:00,
2013-02-02 14:08:00,39.6,29.9,30.17,WNW,289,0.1,2.3,68,0.00,BKN,,0.00,WeatherDisplay:10.37,2013-02-02 19:08:00,
2013-02-02 14:13:00,39.7,30.0,30.17,NNW,336,2.8,5.8,68,0.00,BKN,,0.00,WeatherDisplay:10.37,2013-02-02 19:13:00,
2013-02-02 14:18:00,39.5,29.8,30.17,ENE,70,0.0,1.1,68,0.00,BKN,,0.00,WeatherDisplay:10.37,2013-02-02 19:18:00,
2013-02-02 14:24:00,39.4,30.1,30.16,SSW,194,0.0,3.5,69,0.00,BKN,,0.00,WeatherDisplay:10.37,2013-02-02 19:24:00,
2013-02-02 14:29:00,39.3,30.0,30.16,SW,221,1.9,4.9,69,0.00,BKN,,0.00,WeatherDisplay:10.37,2013-02-02 19:29:00,
2013-02-02 14:34:00,39.4,30.1,30.16,South,183,0.2,2.3,69,0.00,BKN,,0.00,WeatherDisplay:10.37,2013-02-02 19:34:00,
2013-02-02 14:39:00,39.7,30.4,30.15,SSW,208,0.0,0.0,69,0.00,BKN,,0.00,WeatherDisplay:10.37,2013-02-02 19:39:00,
2013-02-02 14:44:00,39.6,31.0,30.15,SSW,197,0.0,0.0,71,0.00,BKN,,0.00,WeatherDisplay:10.37,2013-02-02 19:44:00,
2013-02-02 14:49:00,39.6,30.6,30.15,NW,322,0.0,4.6,70,0.00,BKN,,0.00,WeatherDisplay:10.37,2013-02-02 19:49:00,
2013-02-02 14:54:00,39.5,30.5,30.15,SW,226,0.8,1.2,70,0.00,BKN,,0.00,WeatherDisplay:10.37,2013-02-02 19:54:00,
2013-02-02 14:59:00,39.2,30.6,30.15,South,177,1.9,2.4,71,0.00,BKN,,0.00,WeatherDisplay:10.37,2013-02-02 19:59:00,
2013-02-02 15:04:00,39.2,30.6,30.15,NW,308,0.0,0.0,71,0.00,OVC,,0.00,WeatherDisplay:10.37,2013-02-02 20:04:00,
2013-02-02 15:09:00,39.2,30.6,30.14,NW,316,1.0,1.1,71,0.00,OVC,,0.00,WeatherDisplay:10.37,2013-02-02 20:09:00,
2013-02-02 15:14:00,39.3,31.0,30.14,SSE,167,0.0,0.0,72,0.00,OVC,,0.00,WeatherDisplay:10.37,2013-02-02 20:14:00,
2013-02-02 15:19:00,39.4,30.8,30.14,SW,230,1.1,6.1,71,0.00,OVC,,0.00,WeatherDisplay:10.37,2013-02-02 20:19:00,
2013-02-02 15:24:00,39.3,31.0,30.14,SW,231,2.0,5.8,72,0.00,OVC,,0.00,WeatherDisplay:10.37,2013-02-02 20:24:00,
2013-02-02 15:29:00,39.1,31.2,30.13,SSW,212,0.6,2.4,73,0.00,OVC,,0.00,WeatherDisplay:10.37,2013-02-02 20:29:00,
2013-02-02 15:34:00,38.7,30.8,30.13,SW,218,1.4,8.1,73,0.00,OVC,,0.00,WeatherDisplay:10.37,2013-02-02 20:34:00,
2013-02-02 15:39:00,38.8,31.2,30.13,SW,224,5.1,5.1,74,0.00,OVC,,0.00,WeatherDisplay:10.37,2013-02-02 20:39:00,
2013-02-02 15:44:00,38.7,31.5,30.13,SSW,209,0.5,4.6,75,0.00,OVC,,0.00,WeatherDisplay:10.37,2013-02-02 20:44:00,
2013-02-02 15:49:00,38.7,31.5,30.13,SW,224,0.0,2.3,75,0.00,OVC,,0.00,WeatherDisplay:10.37,2013-02-02 20:49:00,
2013-02-02 15:54:00,38.7,31.5,30.12,WSW,247,0.0,0.0,75,0.00,OVC,,0.00,WeatherDisplay:10.37,2013-02-02 20:54:00,
2013-02-02 15:59:00,38.8,31.6,30.12,NW,308,1.5,2.4,75,0.00,OVC,,0.00,WeatherDisplay:10.37,2013-02-02 20:59:00,
2013-02-02 16:04:00,38.7,31.5,30.12,NW,306,0.0,0.0,75,0.00,OVC,,0.00,WeatherDisplay:10.37,2013-02-02 21:04:00,
2013-02-02 16:09:00,38.7,31.8,30.12,NW,306,0.0,0.0,76,0.00,OVC,,0.00,WeatherDisplay:10.37,2013-02-02 21:09:00,
2013-02-02 16:14:00,38.8,31.9,30.12,West,266,0.0,2.3,76,0.00,OVC,,0.00,WeatherDisplay:10.37,2013-02-02 21:14:00,
2013-02-02 16:19:00,38.9,31.6,30.12,SSW,194,2.0,6.9,75,0.00,OVC,,0.00,WeatherDisplay:10.37,2013-02-02 21:19:00,
2013-02-02 16:24:00,38.9,32.0,30.12,South,177,0.2,2.4,76,0.00,OVC,,0.00,WeatherDisplay:10.37,2013-02-02 21:24:00,
2013-02-02 16:29:00,39.0,32.4,30.12,SSW,194,3.4,3.4,77,0.00,OVC,,0.00,WeatherDisplay:10.37,2013-02-02 21:29:00,
2013-02-02 16:34:00,38.9,31.6,30.12,SSW,197,0.0,0.0,75,0.00,OVC,,0.00,WeatherDisplay:10.37,2013-02-02 21:34:00,
2013-02-02 16:39:00,38.8,31.9,30.12,SSW,197,0.0,1.1,76,0.00,OVC,,0.00,WeatherDisplay:10.37,2013-02-02 21:39:00,
2013-02-02 16:44:00,38.7,32.1,30.12,SSW,206,2.5,4.6,77,0.00,OVC,,0.00,WeatherDisplay:10.37,2013-02-02 21:44:00,
2013-02-02 16:49:00,38.7,32.1,30.12,SSW,206,0.0,0.0,77,0.00,OVC,,0.00,WeatherDisplay:10.37,2013-02-02 21:49:00,
2013-02-02 16:54:00,38.7,32.1,30.12,South,181,0.0,0.0,77,0.00,OVC,,0.00,WeatherDisplay:10.37,2013-02-02 21:54:00,
2013-02-02 16:59:00,38.6,32.0,30.12,South,181,0.5,0.0,77,0.00,OVC,,0.00,WeatherDisplay:10.37,2013-02-02 21:59:00,
2013-02-02 17:04:00,38.4,32.1,30.10,SW,218,2.3,3.5,78,0.00,OVC,,0.00,WeatherDisplay:10.37,2013-02-02 22:04:00,
2013-02-02 17:09:00,38.3,31.7,30.10,SSW,207,0.0,0.0,77,0.00,OVC,,0.00,WeatherDisplay:10.37,2013-02-02 22:09:00,
2013-02-02 17:14:00,38.0,32.1,30.10,SSW,207,0.0,0.0,79,0.00,OVC,,0.00,WeatherDisplay:10.37,2013-02-02 22:14:00,
2013-02-02 17:19:00,37.9,32.0,30.10,SW,228,0.2,2.3,79,0.00,OVC,,0.00,WeatherDisplay:10.37,2013-02-02 22:19:00,
2013-02-02 17:24:00,37.8,31.9,30.10,SE,131,0.0,1.1,79,0.00,OVC,,0.00,WeatherDisplay:10.37,2013-02-02 22:24:00,
2013-02-02 17:29:00,37.7,31.8,30.10,South,187,0.9,4.6,79,0.00,OVC,,0.00,WeatherDisplay:10.37,2013-02-02 22:29:00,
2013-02-02 17:34:00,37.8,31.9,30.10,South,178,0.8,3.5,79,0.00,OVC,,0.00,WeatherDisplay:10.37,2013-02-02 22:34:00,
2013-02-02 17:39:00,37.9,31.7,30.10,SSW,210,0.0,0.0,78,0.00,OVC,,0.00,WeatherDisplay:10.37,2013-02-02 22:39:00,
2013-02-02 17:44:00,38.2,31.6,30.09,NNW,333,0.0,2.3,77,0.00,OVC,,0.00,WeatherDisplay:10.37,2013-02-02 22:44:00,
2013-02-02 17:49:00,38.1,31.8,30.09,ENE,63,0.0,1.2,78,0.00,OVC,,0.00,WeatherDisplay:10.37,2013-02-02 22:49:00,
2013-02-02 17:54:00,38.1,31.8,30.09,SSE,152,0.6,2.4,78,0.00,OVC,,0.00,WeatherDisplay:10.37,2013-02-02 22:54:00,
2013-02-02 17:59:00,37.9,31.7,30.09,SW,229,0.0,1.1,78,0.00,OVC,,0.00,WeatherDisplay:10.37,2013-02-02 22:59:00,
2013-02-02 18:04:00,37.6,31.7,30.09,SW,220,0.3,4.6,79,0.00,OVC,,0.00,WeatherDisplay:10.37,2013-02-02 23:04:00,
2013-02-02 18:09:00,37.8,31.6,30.09,WNW,296,0.0,0.0,78,0.00,OVC,,0.00,WeatherDisplay:10.37,2013-02-02 23:09:00,
2013-02-02 18:14:00,37.9,31.7,30.08,SSE,154,0.0,2.3,78,0.00,OVC,,0.00,WeatherDisplay:10.37,2013-02-02 23:14:00,
2013-02-02 18:19:00,37.9,32.0,30.08,SSE,154,0.0,0.0,79,0.00,OVC,,0.00,WeatherDisplay:10.37,2013-02-02 23:19:00,
2013-02-02 18:24:00,37.8,32.5,30.08,NNE,18,0.0,0.0,81,0.00,OVC,,0.00,WeatherDisplay:10.37,2013-02-02 23:24:00,
2013-02-02 18:29:00,37.6,32.6,30.08,West,260,0.0,0.0,82,0.00,OVC,,0.00,WeatherDisplay:10.37,2013-02-02 23:29:00,
2013-02-02 18:39:00,37.1,32.7,30.08,West,260,0.0,0.0,84,0.00,OVC,,0.00,WeatherDisplay:10.37,2013-02-02 23:39:00,
2013-02-02 18:44:00,36.6,32.8,30.08,West,260,0.0,0.0,86,0.00,OVC,,0.00,WeatherDisplay:10.37,2013-02-02 23:44:00,
2013-02-02 18:49:00,36.4,32.3,30.08,West,260,0.0,0.0,85,0.00,OVC,,0.00,WeatherDisplay:10.37,2013-02-02 23:49:00,
2013-02-02 18:54:00,36.1,32.9,30.08,West,260,0.0,0.0,88,0.00,OVC,,0.00,WeatherDisplay:10.37,2013-02-02 23:54:00,
2013-02-02 18:59:00,36.1,32.9,30.09,WNW,299,0.0,0.0,88,0.00,OVC,,0.00,WeatherDisplay:10.37,2013-02-02 23:59:00,
2013-02-02 19:04:00,36.1,32.6,30.08,SE,141,0.3,3.5,87,0.00,OVC,,0.00,WeatherDisplay:10.37,2013-02-03 00:04:00,
2013-02-02 19:09:00,36.3,32.8,30.08,SSW,210,0.0,1.1,87,0.00,OVC,,0.00,WeatherDisplay:10.37,2013-02-03 00:09:00,
2013-02-02 19:14:00,36.3,33.1,30.08,SSW,211,0.0,0.0,88,0.00,OVC,,0.00,WeatherDisplay:10.37,2013-02-03 00:14:00,
2013-02-02 19:19:00,36.2,33.0,30.08,SSW,210,0.0,0.0,88,0.00,OVC,,0.00,WeatherDisplay:10.37,2013-02-03 00:19:00,
2013-02-02 19:24:00,36.0,33.1,30.08,SSW,211,0.0,0.0,89,0.00,OVC,,0.00,WeatherDisplay:10.37,2013-02-03 00:24:00,
2013-02-02 19:29:00,35.8,32.9,30.09,WSW,254,2.4,2.4,89,0.00,OVC,,0.00,WeatherDisplay:10.37,2013-02-03 00:29:00,
2013-02-02 19:34:00,35.7,33.1,30.09,WSW,254,0.0,0.0,90,0.00,OVC,,0.00,WeatherDisplay:10.37,2013-02-03 00:34:00,
2013-02-02 19:55:00,35.1,33.0,30.09,WSW,254,0.0,0.0,92,0.01,OVC,,0.01,WeatherDisplay:10.37,2013-02-03 00:55:00,
2013-02-02 20:00:00,34.8,32.7,30.09,ENE,64,0.0,0.0,92,0.01,OVC,,0.01,WeatherDisplay:10.37,2013-02-03 01:00:00,
2013-02-02 20:05:00,34.5,32.4,30.09,ESE,123,0.0,0.0,92,0.01,OVC,,0.01,WeatherDisplay:10.37,2013-02-03 01:05:00,
2013-02-02 20:10:00,34.3,32.5,30.09,ESE,123,0.0,0.0,93,0.01,OVC,,0.01,WeatherDisplay:10.37,2013-02-03 01:10:00,
2013-02-02 20:15:00,34.2,32.4,30.10,NW,322,0.0,0.0,93,0.01,OVC,,0.01,WeatherDisplay:10.37,2013-02-03 01:15:00,
2013-02-02 20:20:00,34.1,32.3,30.10,NW,322,0.0,0.0,93,0.01,OVC,,0.01,WeatherDisplay:10.37,2013-02-03 01:20:00,
2013-02-02 20:26:00,34.1,32.3,30.11,NW,323,0.0,0.0,93,0.01,OVC,,0.01,WeatherDisplay:10.37,2013-02-03 01:26:00,
2013-02-02 20:31:00,34.3,32.5,30.10,NNE,30,1.3,3.7,93,0.01,OVC,,0.01,WeatherDisplay:10.37,2013-02-03 01:31:00,
2013-02-02 20:36:00,34.6,32.5,30.10,South,187,0.7,3.5,92,0.01,OVC,,0.01,WeatherDisplay:10.37,2013-02-03 01:36:00,
2013-02-02 20:41:00,34.8,32.4,30.10,NW,326,0.6,1.2,91,0.00,OVC,,0.01,WeatherDisplay:10.37,2013-02-03 01:41:00,
2013-02-02 20:46:00,35.4,32.2,30.10,SSW,194,0.1,3.7,88,0.00,OVC,,0.01,WeatherDisplay:10.37,2013-02-03 01:46:00,
2013-02-02 20:51:00,35.8,32.0,30.10,WNW,302,0.0,0.0,86,0.00,OVC,,0.01,WeatherDisplay:10.37,2013-02-03 01:51:00,
2013-02-02 20:56:00,35.9,32.1,30.10,South,169,0.0,1.1,86,0.00,OVC,,0.01,WeatherDisplay:10.37,2013-02-03 01:56:00,
2013-02-02 21:01:00,35.8,32.0,30.10,SSW,200,0.0,0.0,86,0.00,OVC,,0.01,WeatherDisplay:10.37,2013-02-03 02:01:00,
2013-02-02 21:06:00,36.1,32.0,30.09,WSW,240,0.3,1.1,85,0.00,-SN,,0.01,WeatherDisplay:10.37,2013-02-03 02:06:00,
2013-02-02 21:11:00,36.1,32.0,30.09,WSW,242,0.0,1.1,85,0.00,-SN,,0.01,WeatherDisplay:10.37,2013-02-03 02:11:00,
2013-02-02 21:16:00,36.1,31.4,30.09,SW,222,0.0,0.0,83,0.00,-SN,,0.01,WeatherDisplay:10.37,2013-02-03 02:16:00,
2013-02-02 21:21:00,35.8,32.0,30.09,SW,222,0.0,0.0,86,0.00,-SN,,0.01,WeatherDisplay:10.37,2013-02-03 02:21:00,
2013-02-02 21:26:00,35.3,31.8,30.09,WNW,299,0.1,2.3,87,0.00,-SN,,0.01,WeatherDisplay:10.37,2013-02-03 02:26:00,
2013-02-02 21:31:00,35.2,31.1,30.09,West,271,0.0,0.0,85,0.00,-SN,,0.01,WeatherDisplay:10.37,2013-02-03 02:31:00,
2013-02-02 21:36:00,35.3,31.2,30.09,South,169,0.4,3.7,85,0.00,-SN,,0.01,WeatherDisplay:10.37,2013-02-03 02:36:00,
2013-02-02 21:41:00,35.9,30.6,30.09,SW,227,5.3,9.2,81,0.00,-SN,,0.01,WeatherDisplay:10.37,2013-02-03 02:41:00,
2013-02-02 21:46:00,36.2,30.9,30.09,SW,224,1.0,1.1,81,0.00,-SN,,0.01,WeatherDisplay:10.37,2013-02-03 02:46:00,
2013-02-02 21:51:00,36.5,30.9,30.09,West,272,0.5,3.7,80,0.00,-SN,,0.01,WeatherDisplay:10.37,2013-02-03 02:51:00,
2013-02-02 21:56:00,37.0,30.5,30.08,West,265,3.7,8.1,77,0.00,-SN,,0.01,WeatherDisplay:10.37,2013-02-03 02:56:00,
2013-02-02 22:01:00,36.7,30.8,30.08,SSE,150,0.0,0.0,79,0.00,-SN,,0.01,WeatherDisplay:10.37,2013-02-03 03:01:00,
2013-02-02 22:06:00,36.4,30.2,30.08,WNW,297,1.8,5.8,78,0.00,OVC,,0.01,WeatherDisplay:10.37,2013-02-03 03:06:00,
2013-02-02 22:11:00,35.9,30.3,30.07,SE,133,0.9,3.5,80,0.00,OVC,,0.01,WeatherDisplay:10.37,2013-02-03 03:11:00,
2013-02-02 22:16:00,35.4,30.1,30.07,WNW,290,0.0,0.0,81,0.00,OVC,,0.01,WeatherDisplay:10.37,2013-02-03 03:16:00,
2013-02-02 22:21:00,35.3,30.1,30.08,WNW,293,0.0,0.0,81,0.00,OVC,,0.01,WeatherDisplay:10.37,2013-02-03 03:21:00,
2013-02-02 22:26:00,35.4,29.5,30.08,SSW,208,6.1,8.1,79,0.00,OVC,,0.01,WeatherDisplay:10.37,2013-02-03 03:26:00,
2013-02-02 22:31:00,36.1,30.2,30.08,WNW,293,0.1,4.9,79,0.00,OVC,,0.01,WeatherDisplay:10.37,2013-02-03 03:31:00,
2013-02-02 22:36:00,36.4,29.9,30.08,East,87,0.0,0.0,77,0.00,OVC,,0.01,WeatherDisplay:10.37,2013-02-03 03:36:00,
2013-02-02 22:46:00,36.6,30.1,30.08,WSW,245,0.3,2.3,77,0.00,OVC,,0.01,WeatherDisplay:10.37,2013-02-03 03:46:00,
2013-02-02 22:51:00,36.5,30.0,30.07,South,173,1.1,3.5,77,0.00,OVC,,0.01,WeatherDisplay:10.37,2013-02-03 03:51:00,
2013-02-02 22:56:00,36.6,29.7,30.07,ESE,102,4.3,9.2,76,0.00,OVC,,0.01,WeatherDisplay:10.37,2013-02-03 03:56:00,
2013-02-02 23:01:00,36.7,29.8,30.07,NNE,12,6.5,8.1,76,0.00,OVC,,0.01,WeatherDisplay:10.37,2013-02-03 04:01:00,
2013-02-02 23:06:00,36.6,29.4,30.06,West,272,1.0,5.8,75,0.00,OVC,,0.01,WeatherDisplay:10.37,2013-02-03 04:06:00,
2013-02-02 23:11:00,36.6,29.1,30.06,NNE,33,9.1,9.1,74,0.00,OVC,,0.01,WeatherDisplay:10.37,2013-02-03 04:11:00,
2013-02-02 23:16:00,36.5,29.3,30.06,SW,225,4.9,9.8,75,0.00,OVC,,0.01,WeatherDisplay:10.37,2013-02-03 04:16:00,
2013-02-02 23:21:00,36.6,28.8,30.06,West,270,3.4,8.5,73,0.00,OVC,,0.01,WeatherDisplay:10.37,2013-02-03 04:21:00,
2013-02-02 23:26:00,36.7,28.9,30.07,SE,132,6.5,19.6,73,0.00,OVC,,0.01,WeatherDisplay:10.37,2013-02-03 04:26:00,
2013-02-02 23:31:00,36.6,28.8,30.06,SW,215,3.2,12.7,73,0.00,OVC,,0.01,WeatherDisplay:10.37,2013-02-03 04:31:00,
2013-02-02 23:36:00,36.3,28.5,30.06,SW,227,5.9,6.9,73,0.00,OVC,,0.01,WeatherDisplay:10.37,2013-02-03 04:36:00,
2013-02-02 23:42:00,36.0,28.8,30.06,NNW,345,0.3,3.5,75,0.00,OVC,,0.01,WeatherDisplay:10.37,2013-02-03 04:42:00,
2013-02-02 23:47:00,35.9,28.4,30.06,NW,309,0.2,5.8,74,0.00,OVC,,0.01,WeatherDisplay:10.37,2013-02-03 04:47:00,
2013-02-02 23:52:00,36.1,28.6,30.06,NW,308,1.0,4.6,74,0.00,OVC,,0.01,WeatherDisplay:10.37,2013-02-03 04:52:00,
2013-02-02 23:57:00,35.4,28.9,30.05,WSW,248,0.2,4.9,77,0.00,OVC,,0.01,WeatherDisplay:10.37,2013-02-03 04:57:00,